Regional Weather Roundup
Issued by NWS

Home | Current Version | Previous Version | Text Only | Print | Product List | Glossary Off
Versions: 1 2 3 4 5 6 7 8 9 10 11 12 13 14 15 16 17 18 19 20 21 22 23 24 25 26 27 28

000
ASUS45 KSLC 250410
RWRUT

UTAH REGIONAL WEATHER ROUNDUP
NATIONAL WEATHER SERVICE SALT LAKE CITY UT
1000 PM MDT FRI OCT 24 2014

UTZ001>011-023>025-250500-

NORTHERN UTAH

CITY           SKY/WX    TMP DP  RH WIND       PRES   REMARKS
BRIGHAM CITY   CLEAR     52  40  61 N3        30.09S
HILL AFB       CLEAR     61  29  30 SE10      30.11S
LOGAN          CLEAR     47  35  63 CALM      30.11S
OGDEN          CLEAR     59  32  36 S10       30.08F
PROVO AIRPORT  CLEAR     55  32  41 SE5       30.13R
SALT LAKE CITY CLEAR     57  37  47 SE7       30.08S
VERNAL         CLEAR     48  34  58 VRB3      30.24R
WENDOVER       CLEAR     52  34  50 CALM      30.07S
HEBER CITY     CLEAR     39  30  70 CALM      30.20R
WEST JORDAN    CLEAR     57  36  44 SW12      30.11S

$$

UTZ012>022-026-027-250500-

SOUTHERN/CENTRAL UTAH

CITY           SKY/WX    TMP DP  RH WIND       PRES   REMARKS
BLANDING       CLEAR     49  32  50 N6        30.37R
BRYCE CANYON   CLEAR     36  26  67 SW5       30.39R WCI  32
CEDAR CITY     CLEAR     61  30  31 SW9       30.21R
DELTA          CLEAR     62  26  25 S12       30.14R
HANKSVILLE       N/A     57  32  38 N7        30.20R
MILFORD        CLEAR     57  31  37 SW13      30.16S
MOAB/CYNLANDS  CLEAR     55  32  41 W5        30.18R
PRICE          CLEAR     51  32  48 N10       30.27R
ST GEORGE      CLEAR     66  34  30 S5        30.10R

$$

REGIONAL REPORTS     COLORADO/ARIZONA

CITY           SKY/WX    TMP DP  RH WIND       PRES   REMARKS
CRAIG, CO      CLEAR     40  29  64 VRB6      30.30R
GRAND JUNCTION CLEAR     53  35  50 SE7       30.24R
RIFLE          CLEAR     49  32  52 CALM      30.30R
MONTROSE       CLEAR     49  32  52 SE9       30.32R
CORTEZ         CLEAR     44  29  55 NE6       30.32R
PAGE, AZ       CLEAR     65  35  33 CALM      30.18R
GRAND CANYON   CLEAR     41  22  46 CALM      30.34R
KINGMAN        CLEAR     64  38  38 S12       30.12R
FLAGSTAFF      CLEAR     44  29  55 CALM      30.38R

$$

REGIONAL REPORTS    NEVADA/IDAHO/WYOMING

CITY           SKY/WX    TMP DP  RH WIND       PRES   REMARKS
LAS VEGAS, NV  CLEAR     75  39  27 SW12      29.98R
ELY            CLEAR     52  25  35 S16       30.20R
ELKO           CLEAR     68  25  19 SW9G22    30.02S
POCATELLO, ID  CLEAR     63  24  22 S12       30.06S
BURLEY         CLEAR     55  31  39 SW7       30.01F
EVANSTON, WY   CLEAR     57  22  25 S3        30.27S
ROCK SPRINGS   PTCLDY    50  29  44 S7        30.27R
KEMMERER       PTCLDY    46  23  39 N5        30.30R

$$



USA.gov is the U.S. government's official web portal to all federal, state and local government web resources and services.